[[{"header":{"parameterUnit":"m.s-1","parameterCategory":1,"la1":30.2991,"la2":30.254,"lo1":-89.0895,"lo2":-89.0444,"dy":0.0017,"dx":0.0017,"nx":28,"ny":28,"refTime":"2025-02-01T09:00:00:Z","depth":0,"parameterNumber":2,"parameterNumberName":"U-component_of_WINDS"},"data":[0,0,0,0,0,0,0,0,0,0,0,0,0,0,0,0,0,0,0,0,0,0,0,0,0,0,0,0,0,0,0,0,0,0,0,0,0,0,0,0,0,0,0,0,0,0,0,0,0,0,0,0,0,0,0,0,0,0,-0.8728,-0.8728,0,-0.8758,-0.8759,-0.8759,-0.8711,-0.8709,-0.8707,-0.8706,-0.8743,-0.8746,-0.8748,0,0,0,0,0,0,0,0,0,0,0,0,0,-0.8634,-0.8636,-0.8728,-0.8728,-0.8729,-0.8758,-0.8759,-0.8759,-0.8711,-0.8709,-0.8707,-0.8705,-0.8742,-0.8745,-0.8748,0,0,0,0,0,0,0,0,0,0,0,0,0,-0.8671,-0.8637,-0.8728,-0.8708,-0.8706,-0.8758,-0.8759,-0.8759,-0.8711,-0.8709,-0.8706,-0.8704,-0.8741,-0.8745,-0.8749,-0.8823,0,0,-0.8761,-0.8762,0,0,0,0,0,0,0,0,-0.8669,-0.8674,-0.871,-0.8709,-0.8708,-0.8728,-0.8739,-0.8781,-0.8712,-0.871,-0.8706,-0.8703,-0.8741,-0.8744,-0.8756,-0.8825,-0.8826,-0.8761,-0.8763,-0.8765,-0.8766,0,0,0,0,0,0,0,-0.8666,-0.8673,-0.874,-0.8711,-0.871,-0.87,-0.8702,-0.8747,-0.8739,-0.871,-0.8706,-0.871,-0.8739,-0.8752,-0.8756,-0.8827,-0.8761,-0.8764,-0.8767,-0.8768,-0.896,-0.8963,0,0,0,0,0,0,-0.8665,-0.8671,-0.8739,-0.8741,-0.8681,-0.8703,-0.8706,-0.8724,-0.8738,-0.8738,-0.8712,-0.8708,-0.8747,-0.8752,-0.8757,-0.8846,-0.8765,-0.8769,-0.8771,-0.8957,-0.8961,-0.8964,0,0,0,0,0,0,-0.8663,-0.8672,-0.8738,-0.8705,-0.8713,-0.8707,-0.8728,-0.8726,-0.8739,-0.874,-0.8739,-0.8726,-0.8745,-0.8752,-0.8807,-0.8847,-0.877,-0.8774,-0.8954,-0.8958,-0.8962,-0.9024,0,0,0,0,0,0,-0.8661,-0.8671,-0.8698,-0.8706,-0.8714,-0.8785,-0.8731,-0.8729,-0.8745,-0.8739,-0.8753,-0.8753,-0.8744,-0.8802,-0.8811,-0.8851,-0.8777,-0.8951,-0.8956,-0.8961,-0.9019,-0.903,-0.904,0,0,0,0,0,-0.8658,-0.8716,-0.87,-0.8708,-0.8747,-0.8788,-0.8793,-0.8779,-0.8748,-0.8776,-0.8777,-0.8753,-0.8841,-0.8808,-0.8818,-0.8859,-0.8948,-0.8954,-0.8961,-0.9014,-0.9028,-0.904,0,0,0,0,0,0,-0.8715,-0.8716,-0.8699,-0.876,-0.8774,-0.8779,-0.8814,-0.8794,-0.8818,-0.8812,-0.8795,-0.8799,-0.8858,-0.8864,-0.8827,-0.8933,-0.889,-0.8898,-0.8927,-0.894,-0.895,-0.8948,-0.878,0,0,0,0,0,-0.8734,-0.8765,-0.8765,-0.8819,-0.8827,-0.8819,-0.8836,-0.8824,-0.8838,-0.8845,-0.885,-0.8866,-0.8898,-0.8919,-0.8948,-0.9019,-0.9022,-0.9053,-0.9063,-0.9072,-0.908,-0.912,-0.9134,-0.8984,-0.8984,-0.8984,0,0,-0.8775,-0.878,-0.88,-0.8831,-0.884,-0.8874,-0.8825,-0.8863,-0.8888,-0.8851,-0.8903,-0.8907,-0.8925,-0.8989,-0.9017,-0.8996,-0.9122,-0.908,-0.9087,-0.909,-0.9128,-0.9142,-0.9154,-0.8989,-0.8988,-0.8987,0,0,-0.8868,-0.8873,-0.892,-0.8929,-0.8943,-0.8938,-0.8949,-0.8957,-0.8958,-0.901,-0.8983,-0.9014,-0.9068,-0.9082,-0.9096,-0.9194,-0.9173,-0.9204,-0.926,-0.9299,-0.9311,-0.9321,-0.9357,-0.9371,-0.9212,-0.9212,-0.9212,0,-0.8918,-0.8966,-0.8947,-0.8986,-0.9001,-0.8967,-0.9015,-0.9026,-0.905,-0.9062,-0.9037,-0.9104,-0.9114,-0.9181,-0.9204,-0.9217,-0.9231,-0.9203,-0.931,-0.932,-0.933,-0.9364,-0.9378,-0.9216,-0.9215,-0.9215,-0.9215,0,-0.9027,-0.9061,-0.9097,-0.9119,-0.9138,-0.9182,-0.9171,-0.9193,-0.9179,-0.9177,-0.9231,-0.9241,-0.9272,-0.9286,-0.9274,-0.9352,-0.9339,-0.9312,-0.9269,-0.9348,-0.938,-0.9393,-0.9221,-0.922,-0.9219,-0.9218,0,0,-0.9158,-0.9167,-0.9181,-0.9191,-0.9203,-0.9231,-0.9274,-0.9301,-0.9321,-0.9339,-0.9376,-0.9422,-0.9398,-0.9414,-0.9403,-0.9437,-0.9515,-0.9406,-0.9406,-0.9427,-0.9604,-0.9625,-0.9641,-0.9501,-0.9503,-0.9505,-0.9603,0,-0.9251,-0.9323,-0.9307,-0.9379,-0.9411,-0.9379,-0.9416,-0.943,-0.9429,-0.9458,-0.9457,-0.9491,-0.9455,-0.9465,-0.9497,-0.9499,-0.9551,-0.9492,-0.9538,-0.954,-0.9536,-0.9657,-0.968,-0.9772,-0.9616,-0.9618,-0.9619,0,-0.9369,-0.9389,-0.9464,-0.9471,-0.9484,-0.9518,-0.9543,-0.957,-0.9585,-0.9583,-0.96,-0.9583,-0.9628,-0.9582,-0.9645,-0.9605,-0.9623,-0.9627,-0.9631,-0.9636,-0.9585,-0.9668,-0.9801,-0.9815,-0.9639,-0.9637,-0.9636,0,-0.9458,-0.9504,-0.9555,-0.9564,-0.9574,-0.9599,-0.9605,-0.9617,-0.9635,-0.9657,-0.9669,-0.9698,-0.9714,-0.9737,-0.9728,-0.9695,-0.9794,-0.9747,-0.9795,-0.9795,-0.9818,-0.9817,-0.9957,-0.9827,-0.9827,-0.9826,-0.9826,0,-0.9565,-0.9612,-0.9595,-0.9627,-0.9679,-0.9661,-0.9715,-0.9717,-0.9728,-0.9761,-0.9735,-0.9767,-0.9753,-0.9784,-0.9778,-0.9832,-0.9839,-0.984,-0.9838,-0.9843,-0.9843,-0.9856,-0.985,-0.983,-0.9829,-0.9829,-0.9828,0,-0.9674,-0.9664,-0.9718,-0.9722,-0.9725,-0.9764,-0.9769,-0.9799,-0.9796,-0.9838,-0.9847,-0.9843,-0.9879,-0.9872,-0.9912,-0.9908,-0.9976,-0.9966,-0.9971,-0.9969,-1.0017,-1.0014,-1.0172,-1.0193,-1.0048,-1.0049,-1.005,0,-0.9743,-0.9779,-0.9787,-0.9806,-0.9813,-0.9845,-0.9863,-0.9847,-0.9867,-0.9887,-0.9916,-0.9948,-0.9974,-1.0033,-1.0036,-1.0066,-1.0058,-1.0111,-1.0062,-1.0067,-1.006,-1.0059,-1.0063,-1.0121,-1.0123,-1.0124,-1.0125,0,-0.9868,-0.9861,-0.9887,-0.9912,-0.9933,-0.9952,-0.9969,-0.9987,-0.9973,-0.9997,-1.0032,-1.0052,-1.0092,-1.0126,-1.0155,-1.0163,-1.0143,-1.014,-1.0153,-1.016,-1.0162,-1.0163,-0.9999,-1.0137,-1.0136,-1.0135,-1.0135,-1.0134,-0.996,-0.9991,-1.0001,-1.0031,-1.0042,-1.0058,-1.0087,-1.0087,-1.0115,-1.0146,-1.0135,-1.0176,-1.0191,-1.0227,-1.0238,-1.0272,-1.0252,-1.027,-1.0275,-1.0281,-1.0287,-1.0155,-1.0277,-1.0276,-1.0276,-1.0276,-1.0275,0,-1.0085,-1.009,-1.0117,-1.0141,-1.0165,-1.0141,-1.0159,-1.0181,-1.0217,-1.0231,-1.0257,-1.0298,-1.0331,-1.0335,-1.0367,-1.0393,-1.0385,-1.0402,-1.0401,-1.0404,-1.0302,-1.0288,-1.0408,-1.0408,-1.0408,-1.0408,-1.0408,-1.0408,-1.0153,-1.0203,-1.0198,-1.0254,-1.0259,-1.0297,-1.0309,-1.0325,-1.0337,-1.0384,-1.041,-1.0412,-1.0423,-1.0455,-1.0485,-1.0486,-1.0499,-1.0521,-1.0518,-1.0424,-1.0411,-1.0398,-1.0385,-1.0523,-1.0524,-1.0617,-1.0618,-1.0619]},{"header":{"parameterUnit":"m.s-1","parameterCategory":1,"la1":30.2991,"la2":30.254,"lo1":-89.0895,"lo2":-89.0444,"dy":0.0017,"dx":0.0017,"nx":28,"ny":28,"refTime":"2025-02-01T09:00:00:Z","depth":0,"parameterNumber":3,"parameterNumberName":"V-component_of_WINDS"},"data":[0,0,0,0,0,0,0,0,0,0,0,0,0,0,0,0,0,0,0,0,0,0,0,0,0,0,0,0,0,0,0,0,0,0,0,0,0,0,0,0,0,0,0,0,0,0,0,0,0,0,0,0,0,0,0,0,0,0,-0.8119,-0.812,0,-0.8201,-0.8202,-0.8203,-0.8209,-0.8208,-0.8207,-0.8206,-0.8292,-0.8295,-0.8298,0,0,0,0,0,0,0,0,0,0,0,0,0,-0.7967,-0.797,-0.8119,-0.812,-0.8121,-0.8201,-0.8202,-0.8204,-0.8209,-0.8208,-0.8207,-0.8206,-0.8291,-0.8295,-0.8299,0,0,0,0,0,0,0,0,0,0,0,0,0,-0.804,-0.7971,-0.8119,-0.8133,-0.8135,-0.8201,-0.8202,-0.8204,-0.821,-0.8208,-0.8207,-0.8205,-0.829,-0.8295,-0.8299,-0.8356,0,0,-0.8314,-0.8316,0,0,0,0,0,0,0,0,-0.8036,-0.8045,-0.813,-0.8132,-0.8135,-0.8194,-0.8181,-0.8255,-0.821,-0.8181,-0.8206,-0.8205,-0.8261,-0.8268,-0.8286,-0.836,-0.8364,-0.8314,-0.8317,-0.8319,-0.832,0,0,0,0,0,0,0,-0.8031,-0.8042,-0.8151,-0.8131,-0.8134,-0.8136,-0.8145,-0.8195,-0.8228,-0.8184,-0.8184,-0.8194,-0.8262,-0.8282,-0.8288,-0.8365,-0.8314,-0.8318,-0.8321,-0.8323,-0.8491,-0.8492,0,0,0,0,0,0,-0.8023,-0.8038,-0.8149,-0.8154,-0.8081,-0.814,-0.815,-0.8176,-0.8227,-0.8234,-0.8195,-0.8194,-0.8274,-0.8283,-0.8291,-0.8362,-0.8319,-0.8323,-0.8326,-0.8489,-0.8491,-0.8493,0,0,0,0,0,0,-0.8019,-0.8033,-0.8146,-0.8096,-0.8111,-0.8144,-0.8174,-0.8179,-0.8199,-0.8236,-0.8242,-0.8209,-0.8274,-0.8285,-0.834,-0.8365,-0.8326,-0.833,-0.8487,-0.849,-0.8492,-0.8504,0,0,0,0,0,0,-0.8015,-0.8031,-0.8053,-0.8096,-0.8113,-0.8193,-0.8175,-0.8181,-0.8207,-0.8206,-0.8251,-0.8257,-0.8273,-0.8333,-0.8345,-0.8371,-0.8334,-0.8485,-0.8488,-0.8491,-0.8501,-0.8506,-0.851,0,0,0,0,0,-0.801,-0.8053,-0.8054,-0.8067,-0.8141,-0.8194,-0.8204,-0.8221,-0.8208,-0.8231,-0.8255,-0.8256,-0.836,-0.8339,-0.8352,-0.838,-0.8484,-0.8487,-0.8491,-0.8499,-0.8505,-0.851,0,0,0,0,0,0,-0.8012,-0.8059,-0.8061,-0.8119,-0.8152,-0.8195,-0.8223,-0.8227,-0.8265,-0.8263,-0.8283,-0.8293,-0.8348,-0.8369,-0.8344,-0.8438,-0.8421,-0.8427,-0.8422,-0.8428,-0.8433,-0.8427,-0.8337,0,0,0,0,0,-0.8019,-0.8058,-0.8097,-0.8145,-0.8161,-0.8189,-0.8213,-0.8224,-0.8259,-0.8274,-0.8302,-0.8337,-0.8377,-0.8404,-0.8443,-0.8504,-0.8514,-0.853,-0.8534,-0.8538,-0.8544,-0.8578,-0.8586,-0.8505,-0.8505,-0.8505,0,0,-0.8034,-0.8065,-0.8088,-0.8146,-0.8173,-0.8213,-0.8201,-0.8244,-0.8275,-0.828,-0.8335,-0.8356,-0.8397,-0.8455,-0.8482,-0.8475,-0.8568,-0.8543,-0.8545,-0.8549,-0.8583,-0.8591,-0.8597,-0.8507,-0.8507,-0.8507,0,0,-0.8083,-0.811,-0.8153,-0.8181,-0.8222,-0.824,-0.825,-0.8292,-0.8307,-0.8362,-0.8367,-0.8404,-0.8473,-0.8502,-0.8526,-0.8586,-0.8588,-0.8598,-0.8623,-0.8656,-0.8663,-0.8668,-0.8691,-0.8699,-0.8603,-0.8603,-0.8604,0,-0.8097,-0.8158,-0.8175,-0.8218,-0.8244,-0.825,-0.8295,-0.8321,-0.8373,-0.8391,-0.8381,-0.8469,-0.8497,-0.8562,-0.8577,-0.8596,-0.8609,-0.8594,-0.866,-0.8666,-0.8672,-0.8694,-0.8702,-0.8604,-0.8604,-0.8604,-0.8604,0,-0.8174,-0.8216,-0.8246,-0.8296,-0.8325,-0.8368,-0.8393,-0.842,-0.8428,-0.8448,-0.8504,-0.8537,-0.8584,-0.86,-0.8608,-0.8667,-0.8661,-0.8656,-0.8639,-0.868,-0.8701,-0.871,-0.8606,-0.8606,-0.8605,-0.8605,0,0,-0.8227,-0.8286,-0.8297,-0.832,-0.8366,-0.8399,-0.8443,-0.8488,-0.8512,-0.8548,-0.8586,-0.8645,-0.864,-0.8667,-0.8678,-0.8708,-0.8755,-0.8699,-0.87,-0.8709,-0.8823,-0.8828,-0.8837,-0.8756,-0.8758,-0.8759,-0.882,0,-0.8282,-0.836,-0.8377,-0.8445,-0.8484,-0.8491,-0.853,-0.8563,-0.8582,-0.8619,-0.8641,-0.8683,-0.8673,-0.8689,-0.8718,-0.8743,-0.8778,-0.8738,-0.8793,-0.8795,-0.8784,-0.8848,-0.8853,-0.8909,-0.8828,-0.8829,-0.883,0,-0.8356,-0.8394,-0.8465,-0.8507,-0.8524,-0.8558,-0.8602,-0.8637,-0.8674,-0.8686,-0.8717,-0.8725,-0.8772,-0.8752,-0.8818,-0.8791,-0.8814,-0.8829,-0.8832,-0.8838,-0.8816,-0.8857,-0.8927,-0.8936,-0.8843,-0.8842,-0.8841,0,-0.8389,-0.8457,-0.8509,-0.8529,-0.8578,-0.8602,-0.8624,-0.866,-0.8686,-0.8724,-0.8742,-0.8785,-0.8809,-0.8842,-0.8863,-0.8846,-0.8927,-0.8909,-0.894,-0.8939,-0.8957,-0.8956,-0.9033,-0.897,-0.897,-0.897,-0.897,0,-0.8449,-0.8493,-0.8525,-0.8557,-0.8607,-0.8626,-0.8675,-0.8696,-0.8728,-0.8765,-0.8774,-0.8808,-0.8833,-0.8871,-0.8887,-0.894,-0.895,-0.8962,-0.8966,-0.8962,-0.8961,-0.8978,-0.8975,-0.8972,-0.8972,-0.8971,-0.8971,0,-0.8494,-0.8517,-0.8575,-0.8616,-0.8628,-0.8663,-0.8699,-0.8731,-0.8751,-0.8798,-0.881,-0.8841,-0.8886,-0.891,-0.8966,-0.8977,-0.9037,-0.9038,-0.9024,-0.9026,-0.9056,-0.9053,-0.9148,-0.9161,-0.9089,-0.9089,-0.909,0,-0.8532,-0.8566,-0.8611,-0.8636,-0.8659,-0.8699,-0.8726,-0.8747,-0.8775,-0.882,-0.8847,-0.8893,-0.8931,-0.9003,-0.9031,-0.9075,-0.9078,-0.9108,-0.9085,-0.908,-0.908,-0.9078,-0.9082,-0.9112,-0.9113,-0.9114,-0.9114,0,-0.8596,-0.8605,-0.8644,-0.8687,-0.8719,-0.8754,-0.8788,-0.8809,-0.8835,-0.8866,-0.8912,-0.8942,-0.9,-0.9046,-0.9092,-0.9115,-0.9119,-0.9121,-0.9131,-0.9127,-0.9119,-0.9125,-0.9037,-0.9119,-0.9119,-0.9118,-0.9118,-0.9118,-0.8639,-0.867,-0.8707,-0.875,-0.8778,-0.881,-0.8842,-0.8866,-0.8905,-0.8954,-0.8963,-0.9013,-0.905,-0.9112,-0.9137,-0.9177,-0.917,-0.9184,-0.9188,-0.9191,-0.9193,-0.9111,-0.9185,-0.9185,-0.9185,-0.9184,-0.9184,0,-0.8705,-0.8729,-0.8768,-0.8816,-0.885,-0.8851,-0.8889,-0.8918,-0.8961,-0.8995,-0.9032,-0.9086,-0.9131,-0.9163,-0.9208,-0.9234,-0.9237,-0.9245,-0.9244,-0.925,-0.9195,-0.9183,-0.9242,-0.9242,-0.9242,-0.9242,-0.9242,-0.9242,-0.8743,-0.8795,-0.881,-0.8877,-0.8901,-0.8949,-0.8971,-0.9001,-0.9029,-0.9089,-0.9126,-0.9146,-0.9179,-0.9227,-0.9269,-0.9277,-0.9294,-0.9302,-0.9311,-0.9259,-0.9253,-0.9248,-0.9236,-0.9305,-0.9305,-0.9362,-0.9362,-0.9363]}]]